Time,TemperatureF,DewpointF,PressureIn,WindDirection,WindDirectionDegrees,WindSpeedMPH,WindSpeedGustMPH,Humidity,HourlyPrecipIn,Conditions,Clouds,dailyrainin,SoftwareType,DateUTC
2013-02-19 00:02:00,22.0,19.0,29.59,WSW,239,7.0,10.0,89,0.00,,,0.29,,2013-02-19 06:02:00,
2013-02-19 00:11:00,22.0,19.0,29.59,WSW,239,7.0,10.0,89,0.00,,,0.29,,2013-02-19 06:11:00,
2013-02-19 00:22:00,21.0,18.0,29.60,West,275,4.0,8.0,88,0.00,,,0.29,,2013-02-19 06:22:00,
2013-02-19 00:32:00,20.0,17.0,29.61,West,279,2.0,10.0,87,0.00,,,0.29,,2013-02-19 06:32:00,
2013-02-19 00:42:00,20.0,17.0,29.61,West,279,2.0,10.0,87,0.00,,,0.29,,2013-02-19 06:42:00,
2013-02-19 00:52:00,20.0,17.0,29.62,WSW,256,4.0,11.0,87,0.00,,,0.29,,2013-02-19 06:52:00,
2013-02-19 01:01:00,19.0,16.0,29.62,West,278,4.0,7.0,87,0.00,,,0.29,,2013-02-19 07:01:00,
2013-02-19 01:11:00,19.0,16.0,29.62,West,278,4.0,7.0,87,0.00,,,0.29,,2013-02-19 07:11:00,
2013-02-19 01:22:00,19.0,16.0,29.63,West,263,4.0,9.0,87,0.00,,,0.29,,2013-02-19 07:22:00,
2013-02-19 01:32:00,19.0,16.0,29.63,WNW,282,3.0,11.0,87,0.00,,,0.29,,2013-02-19 07:32:00,
2013-02-19 01:42:00,19.0,16.0,29.63,WNW,282,3.0,11.0,87,0.00,,,0.29,,2013-02-19 07:42:00,
2013-02-19 01:52:00,18.0,15.0,29.64,North,5,3.0,10.0,87,0.00,,,0.29,,2013-02-19 07:52:00,
2013-02-19 02:02:00,18.0,15.0,29.65,WNW,292,5.0,7.0,87,0.00,,,0.29,,2013-02-19 08:02:00,
2013-02-19 02:11:00,18.0,15.0,29.65,WNW,292,5.0,7.0,87,0.00,,,0.29,,2013-02-19 08:11:00,
2013-02-19 02:21:00,18.0,15.0,29.65,West,280,2.0,10.0,87,0.00,,,0.29,,2013-02-19 08:21:00,
2013-02-19 02:31:00,17.0,14.0,29.65,WNW,293,4.0,10.0,86,0.00,,,0.29,,2013-02-19 08:31:00,
2013-02-19 02:42:00,17.0,14.0,29.65,WNW,293,4.0,10.0,86,0.00,,,0.29,,2013-02-19 08:42:00,
2013-02-19 02:52:00,17.0,14.0,29.66,WSW,244,10.0,10.0,86,0.00,,,0.29,,2013-02-19 08:52:00,
2013-02-19 03:01:00,16.0,12.0,29.66,WNW,290,4.0,9.0,85,0.00,,,0.29,,2013-02-19 09:01:00,
2013-02-19 03:11:00,16.0,12.0,29.66,WNW,290,4.0,9.0,85,0.00,,,0.29,,2013-02-19 09:11:00,
2013-02-19 03:21:00,16.0,12.0,29.66,West,262,5.0,10.0,85,0.00,,,0.29,,2013-02-19 09:21:00,
2013-02-19 03:32:00,16.0,12.0,29.66,West,279,5.0,10.0,85,0.00,,,0.29,,2013-02-19 09:32:00,
2013-02-19 03:42:00,16.0,12.0,29.66,West,279,5.0,10.0,85,0.00,,,0.29,,2013-02-19 09:42:00,
2013-02-19 03:53:00,16.0,13.0,29.67,West,265,4.0,9.0,86,0.00,,,0.29,,2013-02-19 09:53:00,
2013-02-19 04:01:00,15.0,11.0,29.67,SW,226,7.0,12.0,85,0.00,,,0.29,,2013-02-19 10:01:00,
2013-02-19 04:11:00,15.0,11.0,29.67,SW,226,7.0,12.0,85,0.00,,,0.29,,2013-02-19 10:11:00,
2013-02-19 04:21:00,14.0,10.0,29.68,West,272,3.0,9.0,85,0.00,,,0.29,,2013-02-19 10:21:00,
2013-02-19 04:31:00,14.0,11.0,29.68,West,275,4.0,12.0,86,0.00,,,0.29,,2013-02-19 10:31:00,
2013-02-19 04:42:00,14.0,11.0,29.68,West,275,4.0,12.0,86,0.00,,,0.29,,2013-02-19 10:42:00,
2013-02-19 04:52:00,13.0,9.0,29.69,WNW,296,4.0,11.0,85,0.00,,,0.29,,2013-02-19 10:52:00,
2013-02-19 05:01:00,13.0,10.0,29.70,West,275,7.0,11.0,86,0.00,,,0.29,,2013-02-19 11:01:00,
2013-02-19 05:11:00,13.0,10.0,29.70,West,275,7.0,11.0,86,0.00,,,0.29,,2013-02-19 11:11:00,
2013-02-19 05:22:00,13.0,10.0,29.70,WNW,302,3.0,9.0,86,0.00,,,0.29,,2013-02-19 11:22:00,
2013-02-19 05:32:00,12.0,8.0,29.71,NW,306,4.0,12.0,85,0.00,,,0.29,,2013-02-19 11:32:00,
2013-02-19 05:42:00,12.0,8.0,29.71,NW,306,4.0,12.0,85,0.00,,,0.29,,2013-02-19 11:42:00,
2013-02-19 05:52:00,12.0,8.0,29.72,West,261,5.0,9.0,85,0.00,,,0.29,,2013-02-19 11:52:00,
2013-02-19 06:01:00,12.0,8.0,29.72,West,273,3.0,8.0,85,0.00,,,0.29,,2013-02-19 12:01:00,
2013-02-19 06:12:00,12.0,8.0,29.72,West,273,3.0,8.0,85,0.00,,,0.29,,2013-02-19 12:12:00,
2013-02-19 06:22:00,11.0,7.0,29.72,West,269,3.0,10.0,84,0.00,,,0.29,,2013-02-19 12:22:00,
2013-02-19 06:32:00,11.0,7.0,29.73,West,281,3.0,9.0,84,0.00,,,0.29,,2013-02-19 12:32:00,
2013-02-19 06:42:00,11.0,7.0,29.73,West,281,3.0,9.0,84,0.00,,,0.29,,2013-02-19 12:42:00,
2013-02-19 06:52:00,11.0,7.0,29.74,WSW,255,5.0,8.0,85,0.00,,,0.29,,2013-02-19 12:52:00,
2013-02-19 07:02:00,11.0,7.0,29.75,West,271,3.0,9.0,84,0.00,,,0.29,,2013-02-19 13:02:00,
2013-02-19 07:11:00,11.0,7.0,29.75,West,271,3.0,9.0,84,0.00,,,0.29,,2013-02-19 13:11:00,
2013-02-19 07:22:00,11.0,7.0,29.76,WNW,296,3.0,10.0,84,0.00,,,0.29,,2013-02-19 13:22:00,
2013-02-19 07:32:00,10.0,6.0,29.76,WNW,292,4.0,9.0,84,0.00,,,0.29,,2013-02-19 13:32:00,
2013-02-19 07:41:00,10.0,6.0,29.76,WNW,292,4.0,9.0,84,0.00,,,0.29,,2013-02-19 13:41:00,
2013-02-19 07:52:00,10.0,6.0,29.77,WNW,296,1.0,8.0,84,0.00,,,0.29,,2013-02-19 13:52:00,
2013-02-19 08:01:00,10.0,6.0,29.78,West,272,3.0,8.0,84,0.00,,,0.29,,2013-02-19 14:01:00,
2013-02-19 08:11:00,10.0,6.0,29.78,West,272,3.0,8.0,84,0.00,,,0.29,,2013-02-19 14:11:00,
2013-02-19 08:21:00,10.0,6.0,29.78,West,265,3.0,11.0,83,0.00,,,0.29,,2013-02-19 14:21:00,
2013-02-19 08:32:00,10.0,5.0,29.78,WSW,248,7.0,10.0,81,0.00,,,0.29,,2013-02-19 14:32:00,
2013-02-19 08:42:00,10.0,5.0,29.78,WSW,248,7.0,10.0,81,0.00,,,0.29,,2013-02-19 14:42:00,
2013-02-19 08:52:00,10.0,5.0,29.79,West,269,6.0,12.0,81,0.00,,,0.29,,2013-02-19 14:52:00,
2013-02-19 09:01:00,10.0,5.0,29.81,West,277,7.0,9.0,80,0.00,,,0.29,,2013-02-19 15:01:00,
2013-02-19 09:11:00,10.0,5.0,29.81,West,277,7.0,9.0,80,0.00,,,0.29,,2013-02-19 15:11:00,
2013-02-19 09:21:00,10.0,5.0,29.81,NW,307,2.0,11.0,81,0.00,,,0.29,,2013-02-19 15:21:00,
2013-02-19 09:32:00,11.0,6.0,29.82,WNW,286,4.0,9.0,80,0.00,,,0.29,,2013-02-19 15:32:00,
2013-02-19 09:42:00,11.0,6.0,29.82,WNW,286,4.0,9.0,80,0.00,,,0.29,,2013-02-19 15:42:00,
2013-02-19 09:52:00,11.0,6.0,29.83,West,280,6.0,11.0,79,0.00,,,0.29,,2013-02-19 15:52:00,
2013-02-19 10:01:00,11.0,6.0,29.83,West,279,6.0,9.0,80,0.00,,,0.29,,2013-02-19 16:01:00,
2013-02-19 10:11:00,11.0,6.0,29.83,West,279,6.0,9.0,80,0.00,,,0.29,,2013-02-19 16:11:00,
2013-02-19 10:21:00,11.0,6.0,29.84,West,277,6.0,9.0,79,0.00,,,0.29,,2013-02-19 16:21:00,
2013-02-19 10:32:00,12.0,7.0,29.85,WSW,255,4.0,9.0,80,0.00,,,0.29,,2013-02-19 16:32:00,
2013-02-19 10:42:00,12.0,7.0,29.85,WSW,255,4.0,9.0,80,0.00,,,0.29,,2013-02-19 16:42:00,
2013-02-19 10:52:00,12.0,7.0,29.85,WSW,244,5.0,11.0,79,0.00,,,0.29,,2013-02-19 16:52:00,
2013-02-19 11:01:00,12.0,7.0,29.86,West,276,3.0,11.0,80,0.00,,,0.29,,2013-02-19 17:01:00,
2013-02-19 11:11:00,12.0,7.0,29.86,West,276,3.0,11.0,80,0.00,,,0.29,,2013-02-19 17:11:00,
2013-02-19 11:21:00,12.0,7.0,29.87,WNW,290,6.0,15.0,80,0.00,,,0.29,,2013-02-19 17:21:00,
2013-02-19 11:32:00,13.0,8.0,29.87,West,267,7.0,10.0,79,0.00,,,0.29,,2013-02-19 17:32:00,
2013-02-19 11:41:00,13.0,8.0,29.87,West,267,7.0,10.0,79,0.00,,,0.29,,2013-02-19 17:41:00,
2013-02-19 11:52:00,13.0,7.0,29.88,WSW,258,5.0,11.0,78,0.00,,,0.29,,2013-02-19 17:52:00,
2013-02-19 12:01:00,13.0,7.0,29.88,WNW,286,7.0,14.0,78,0.00,,,0.29,,2013-02-19 18:01:00,
2013-02-19 12:11:00,13.0,7.0,29.88,WNW,286,7.0,14.0,78,0.00,,,0.29,,2013-02-19 18:11:00,
2013-02-19 12:21:00,13.0,7.0,29.88,West,269,6.0,12.0,78,0.00,,,0.29,,2013-02-19 18:21:00,
2013-02-19 12:31:00,13.0,7.0,29.89,West,260,5.0,12.0,78,0.00,,,0.29,,2013-02-19 18:31:00,
2013-02-19 12:42:00,13.0,7.0,29.89,WSW,245,9.0,13.0,78,0.00,,,0.29,,2013-02-19 18:42:00,
2013-02-19 12:52:00,13.0,7.0,29.89,WSW,245,9.0,13.0,78,0.00,,,0.29,,2013-02-19 18:52:00,
2013-02-19 13:01:00,13.0,8.0,29.89,WNW,284,6.0,12.0,79,0.00,,,0.29,,2013-02-19 19:01:00,
2013-02-19 13:11:00,13.0,8.0,29.89,WNW,284,6.0,12.0,79,0.00,,,0.29,,2013-02-19 19:11:00,
2013-02-19 13:21:00,13.0,8.0,29.89,WNW,288,4.0,12.0,80,0.00,,,0.29,,2013-02-19 19:21:00,
2013-02-19 13:31:00,14.0,9.0,29.89,NW,319,5.0,13.0,79,0.00,,,0.29,,2013-02-19 19:31:00,
2013-02-19 13:41:00,14.0,9.0,29.89,NW,319,5.0,13.0,79,0.00,,,0.29,,2013-02-19 19:41:00,
2013-02-19 13:51:00,14.0,9.0,29.89,West,261,10.0,18.0,80,0.00,,,0.29,,2013-02-19 19:51:00,
2013-02-19 14:01:00,14.0,9.0,29.89,WNW,292,3.0,14.0,79,0.00,,,0.29,,2013-02-19 20:01:00,
2013-02-19 14:12:00,14.0,9.0,29.89,WNW,292,3.0,14.0,79,0.00,,,0.29,,2013-02-19 20:12:00,
2013-02-19 14:21:00,15.0,10.0,29.89,WSW,246,8.0,17.0,79,0.00,,,0.29,,2013-02-19 20:21:00,
2013-02-19 14:32:00,15.0,10.0,29.91,WSW,240,13.0,17.0,79,0.00,,,0.29,,2013-02-19 20:32:00,
2013-02-19 14:42:00,15.0,10.0,29.91,WSW,240,13.0,17.0,79,0.00,,,0.29,,2013-02-19 20:42:00,
2013-02-19 14:52:00,15.0,10.0,29.91,WNW,285,7.0,16.0,79,0.00,,,0.29,,2013-02-19 20:52:00,
2013-02-19 15:02:00,16.0,11.0,29.93,WSW,258,5.0,12.0,80,0.00,,,0.29,,2013-02-19 21:02:00,
2013-02-19 15:11:00,16.0,11.0,29.93,WSW,258,5.0,12.0,80,0.00,,,0.29,,2013-02-19 21:11:00,
2013-02-19 15:21:00,16.0,11.0,29.93,NW,313,7.0,15.0,79,0.00,,,0.29,,2013-02-19 21:21:00,
2013-02-19 15:32:00,17.0,11.0,29.93,WNW,289,7.0,16.0,78,0.00,,,0.29,,2013-02-19 21:32:00,
2013-02-19 15:42:00,17.0,11.0,29.93,WNW,289,7.0,16.0,78,0.00,,,0.29,,2013-02-19 21:42:00,
2013-02-19 15:52:00,17.0,11.0,29.93,WNW,286,5.0,15.0,77,0.00,,,0.29,,2013-02-19 21:52:00,
2013-02-19 16:02:00,17.0,11.0,29.94,West,267,7.0,15.0,78,0.00,,,0.29,,2013-02-19 22:02:00,
2013-02-19 16:11:00,17.0,11.0,29.94,West,267,7.0,15.0,78,0.00,,,0.29,,2013-02-19 22:11:00,
2013-02-19 16:21:00,17.0,11.0,29.95,WNW,291,5.0,16.0,78,0.00,,,0.27,,2013-02-19 22:21:00,
2013-02-19 16:32:00,17.0,11.0,29.96,SSW,207,6.0,14.0,77,0.00,,,0.24,,2013-02-19 22:32:00,
2013-02-19 16:41:00,17.0,11.0,29.96,SSW,207,6.0,14.0,77,0.00,,,0.24,,2013-02-19 22:41:00,
2013-02-19 16:52:00,17.0,11.0,29.96,WNW,303,8.0,12.0,77,0.00,,,0.23,,2013-02-19 22:52:00,
2013-02-19 17:01:00,17.0,11.0,29.97,West,271,7.0,14.0,76,0.00,,,0.19,,2013-02-19 23:01:00,
2013-02-19 17:11:00,17.0,11.0,29.97,West,271,7.0,14.0,76,0.00,,,0.19,,2013-02-19 23:11:00,
2013-02-19 17:21:00,16.0,10.0,29.98,West,270,7.0,13.0,77,0.00,,,0.12,,2013-02-19 23:21:00,
2013-02-19 17:32:00,16.0,10.0,29.98,West,281,5.0,13.0,77,0.00,,,0.07,,2013-02-19 23:32:00,
2013-02-19 17:41:00,16.0,10.0,29.98,West,281,5.0,13.0,77,0.00,,,0.07,,2013-02-19 23:41:00,
2013-02-19 17:52:00,15.0,9.0,29.99,West,269,6.0,10.0,77,0.00,,,0.06,,2013-02-19 23:52:00,
2013-02-19 18:01:00,15.0,9.0,30.00,WNW,303,12.0,12.0,78,0.00,,,0.06,,2013-02-20 00:01:00,
2013-02-19 18:11:00,15.0,9.0,30.00,WNW,303,12.0,12.0,78,0.00,,,0.06,,2013-02-20 00:11:00,
2013-02-19 18:21:00,15.0,9.0,30.00,West,276,5.0,11.0,78,0.00,,,0.06,,2013-02-20 00:21:00,
2013-02-19 18:31:00,15.0,9.0,30.01,WNW,288,5.0,10.0,78,0.00,,,0.03,,2013-02-20 00:31:00,
2013-02-19 18:42:00,15.0,9.0,30.01,WNW,288,5.0,10.0,78,0.00,,,0.03,,2013-02-20 00:42:00,
2013-02-19 18:52:00,14.0,9.0,30.02,West,266,2.0,9.0,79,0.00,,,0.00,,2013-02-20 00:52:00,
2013-02-19 19:02:00,14.0,9.0,30.02,WNW,288,4.0,9.0,80,0.00,,,0.00,,2013-02-20 01:02:00,
2013-02-19 19:11:00,14.0,9.0,30.02,WNW,288,4.0,9.0,80,0.00,,,0.00,,2013-02-20 01:11:00,
2013-02-19 19:21:00,14.0,9.0,30.03,WNW,298,4.0,8.0,80,0.00,,,0.00,,2013-02-20 01:21:00,
2013-02-19 19:32:00,13.0,8.0,30.04,NW,306,5.0,12.0,80,0.00,,,0.00,,2013-02-20 01:32:00,
2013-02-19 19:42:00,13.0,8.0,30.04,NW,306,5.0,12.0,80,0.00,,,0.00,,2013-02-20 01:42:00,
2013-02-19 19:52:00,13.0,8.0,30.04,NW,306,5.0,12.0,80,0.00,,,0.00,,2013-02-20 01:52:00,
2013-02-19 20:01:00,13.0,8.0,30.04,NW,306,5.0,12.0,80,0.00,,,0.00,,2013-02-20 02:01:00,
2013-02-19 20:11:00,13.0,8.0,30.04,NW,306,5.0,12.0,80,0.00,,,0.00,,2013-02-20 02:11:00,